Temperature
15 16 16 16 13 11 13 14 15 16 16 17 18 17 16 15 16 16 15 15 15 15 14 14 14 14 14 14 14 14 14 14 14 14 14 14 14 14 14 13 13 13 14 14 14 14 14 14 14
15 15 16 15 12 12 13 14 15 16 17 18 17 17 15 14 15 15 15 15 15 15 14 14 14 14 14 14 14 14 14 14 14 14 13 13 13 13 13 13 13 13 13 13 13 13 13 13 13
15 15 15 12 12 13 14 15 15 16 17 17 16 16 15 14 14 15 15 15 14 14 14 14 14 14 14 14 14 14 14 14 14 13 13 13 13 13 13 13 13 13 13 13 13 13 13 13 13
15 15 14 11 13 13 14 15 15 15 17 17 16 14 14 14 14 14 15 14 14 14 14 14 14 13 13 13 13 13 13 13 13 13 13 13 13 13 13 13 13 13 12 12 12 12 12 12 12
14 14 12 11 13 13 14 15 16 15 15 16 15 13 13 14 14 14 14 14 14 14 14 14 13 13 13 13 13 13 13 13 13 13 12 12 13 12 12 12 12 12 12 12 12 12 12 12 12
14 12 11 12 13 14 14 15 16 15 15 15 15 12 12 13 14 14 14 13 13 14 13 13 13 13 13 13 13 13 13 13 13 13 12 12 12 12 12 12 12 12 12 12 11 12 12 12 12
13 10 11 12 13 13 14 15 15 14 14 15 15 12 11 12 13 13 13 13 13 13 13 13 13 13 13 13 13 13 12 12 12 12 12 12 12 12 12 12 12 11 11 11 11 11 11 11 11
13 10 12 12 13 13 14 15 15 15 14 15 15 12 11 12 12 13 13 12 12 12 12 12 12 12 12 12 12 12 12 12 12 12 12 12 12 12 12 12 11 11 11 11 11 11 11 11 11
13 10 11 12 13 13 14 14 14 15 14 14 13 13 13 12 12 12 12 12 12 12 12 12 12 12 12 12 12 12 12 12 12 12 12 12 11 11 11 11 11 11 11 11 11 11 11 11 11
12 10 11 12 13 13 13 13 14 14 13 12 12 13 13 12 12 12 12 12 11 11 11 11 11 12 12 12 11 11 11 11 11 11 11 11 11 11 11 11 11 11 11 11 10 10 11 11 10
11 10 12 12 13 13 13 13 13 13 11 12 12 12 12 12 12 11 11 11 11 11 11 11 11 11 11 11 11 11 11 11 11 11 11 11 11 11 11 11 10 10 10 10 10 10 10 10 10
10 11 12 12 13 13 12 12 12 12 12 13 13 13 12 11 11 11 11 11 11 11 11 10 11 11 11 11 11 11 11 11 11 10 10 10 10 10 10 10 10 10 10 10 10 10 10 10 10
10 10 11 11 12 12 12 11 11 11 12 12 12 12 11 11 11 11 11 11 10 10 10 10 10 10 10 10 10 10 10 10 10 10 10 10 10 10 10 10 10 9 9 9 9 9 9 9 9
10 10 10 11 11 11 11 10 10 10 11 11 11 11 10 10 10 10 10 10 10 10 10 10 10 10 10 10 10 10 10 10 10 10 10 10 10 10 10 9 9 9 9 9 9 9 9 9 9
10 9 9 10 10 10 10 9 9 10 10 10 10 10 9 9 9 10 10 10 10 10 9 9 9 9 9 9 9 9 9 9 9 9 9 9 9 9 9 9 9 9 8 8 8 8 8 8 8
9 8 8 9 9 9 9 8 9 10 9 8 8 8 9 8 8 9 9 9 9 9 9 9 9 9 9 9 9 9 9 9 9 9 9 9 9 9 9 8 8 8 8 8 8 8 8 8 8
7 7 8 9 9 8 8 8 8 9 8 7 7 7 7 8 8 8 8 8 9 9 9 9 8 8 8 8 8 8 8 8 8 8 8 8 8 8 8 8 8 8 8 7 7 7 7 7 7
7 6 7 8 8 8 7 7 7 7 7 6 6 6 6 7 7 7 7 8 8 8 8 8 8 8 8 7 8 8 8 7 7 8 8 8 7 8 8 8 7 7 7 7 7 7 7 7 7
7 7 7 7 8 7 7 7 7 6 6 5 5 5 5 6 7 7 7 7 7 7 7 7 7 7 7 7 7 7 7 7 7 7 7 7 7 7 7 7 7 7 7 7 6 6 6 6 6
7 6 6 7 7 7 6 6 6 5 5 5 5 5 5 5 6 6 6 6 6 6 7 7 7 7 7 7 6 7 7 7 6 7 6 7 7 7 7 7 6 6 6 6 6 6 6 5 5
6 6 6 6 6 6 6 5 5 5 5 5 5 5 5 5 5 5 5 5 5 6 6 6 6 6 6 6 6 6 6 6 6 6 6 6 6 6 6 6 6 6 6 6 6 6 6 6 5
6 6 6 6 5 4 5 4 5 5 4 4 4 4 4 4 4 4 4 4 5 5 5 6 6 6 6 5 5 5 5 6 6 6 6 5 5 5 6 6 5 5 5 5 5 5 5 5 5
5 6 6 5 4 4 4 4 4 4 4 4 3 4 4 4 4 4 4 4 4 4 5 5 5 5 5 5 5 5 5 5 5 5 5 5 5 5 5 5 5 5 5 5 5 5 5 5 5
5 5 4 3 3 4 4 4 4 3 4 4 3 3 3 3 3 3 3 3 4 4 4 4 4 4 4 4 4 4 4 4 4 4 4 4 4 4 4 4 4 4 4 4 4 4 4 4 4
4 3 4 4 3 3 4 3 3 3 3 3 2 2 2 2 2 2 3 3 3 3 3 3 3 4 4 4 4 4 4 4 4 4 4 4 3 4 4 4 4 4 4 4 4 4 4 4 4
3 3 3 3 3 3 3 2 2 2 2 2 2 2 2 2 2 2 2 2 2 2 2 2 3 3 3 3 3 3 3 3 3 3 3 3 3 3 3 3 3 3 3 3 3 3 3 3 3
3 3 3 2 2 2 2 1 2 2 1 0 0 1 1 1 1 1 1 1 1 1 2 2 2 2 2 2 2 2 2 2 2 2 2 3 3 3 2 2 2 2 2 3 3 3 3 3 3
3 2 1 1 2 2 2 1 2 1 1 -0 -1 -1 -0 0 0 1 1 1 1 1 1 1 1 1 1 2 2 2 2 2 2 2 2 2 2 2 2 2 2 2 2 2 2 2 2 2 2
2 2 1 1 1 2 1 2 1 1 1 -0 -1 -1 -1 -1 -0 -0 0 0 0 0 0 0 0 1 1 1 1 1 1 1 1 1 1 1 1 1 1 1 1 1 1 1 1 2 2 2 2
1 1 1 1 1 0 1 1 1 -0 -1 -1 -1 -1 -1 -1 -1 -1 -0 -0 -0 -0 -0 -0 -0 -0 -0 0 0 0 0 0 0 0 1 1 1 1 1 1 1 1 1 1 1 1 1 1 1
Wind_Speed
6 4 3 4 5 3 5 6 4 2 1 1 1 5 7 5 3 4 3 7 10 11 13 16 17 18 18 17 16 16 16 15 15 15 15 15 15 15 15 16 16 17 17 17 17 18 18 19 19
2 2 4 4 4 3 6 6 6 6 5 2 2 4 6 3 2 5 4 7 12 13 14 15 18 18 18 17 17 16 16 15 15 15 15 15 15 15 15 16 16 16 16 17 17 17 18 18 18
1 2 4 4 5 8 7 5 7 5 2 2 2 4 4 4 3 4 5 11 12 11 13 16 18 18 18 17 17 16 16 16 15 15 15 15 15 15 15 16 16 16 16 16 17 17 17 17 18
2 3 3 3 8 8 8 5 4 3 1 1 4 4 3 1 2 4 9 12 12 10 13 16 18 18 18 17 16 16 16 15 15 15 15 15 15 15 15 15 15 16 16 16 16 17 17 17 18
3 4 2 3 8 6 6 5 4 3 2 0 4 5 2 4 4 8 9 12 12 9 12 16 18 18 17 17 16 16 15 15 15 14 14 15 14 15 15 15 15 16 16 16 16 16 17 17 18
3 3 4 7 8 5 5 5 3 2 1 1 4 5 1 1 5 6 8 9 10 10 11 14 17 17 17 16 16 15 15 14 14 14 14 14 15 15 15 15 15 15 16 16 16 16 17 17 18
4 5 7 7 6 6 5 3 4 4 2 2 4 6 2 0 2 6 8 8 9 10 10 11 13 15 16 16 15 15 15 14 14 14 14 14 15 15 14 15 15 15 15 16 16 17 17 18 18
4 4 5 6 6 7 4 2 2 4 3 0 4 7 4 4 3 7 9 8 8 7 8 9 11 12 12 13 15 15 14 14 14 14 14 15 14 14 14 14 15 15 15 15 16 17 17 17 17
3 2 6 7 7 6 3 2 1 1 3 3 2 2 4 7 7 9 8 7 7 7 6 8 9 10 11 11 13 14 14 14 14 14 14 14 13 13 13 14 14 14 14 15 15 16 17 17 17
4 6 8 5 5 4 3 3 3 1 2 1 2 3 6 8 9 9 9 9 9 8 6 6 8 9 10 9 10 11 11 12 12 12 13 13 13 12 12 14 14 13 13 14 14 15 14 14 13
5 7 5 3 3 3 3 2 2 4 3 4 5 5 8 8 8 8 8 8 8 8 7 6 8 9 9 8 8 8 9 10 11 12 12 13 12 11 11 11 11 11 12 11 12 12 12 11 11
3 4 4 3 2 2 3 2 1 4 5 4 7 10 10 10 9 9 8 7 7 7 7 5 6 8 8 9 8 8 8 8 8 10 12 11 9 9 9 8 9 9 10 10 10 10 11 12 12
4 3 2 2 1 2 2 2 2 3 2 4 8 8 8 9 8 6 6 6 7 7 6 6 6 6 7 8 7 7 7 8 9 10 10 11 9 8 8 8 8 9 10 10 10 10 11 10 11
3 2 2 3 3 2 3 3 1 4 2 5 6 6 6 6 6 5 4 6 7 7 7 6 6 6 7 6 6 7 8 8 9 9 10 11 10 9 8 8 8 8 9 10 10 10 9 9 9
1 0 3 3 3 2 2 4 5 3 4 4 4 5 4 4 4 5 6 6 6 7 7 6 6 6 5 6 7 7 8 8 8 8 11 11 11 10 9 7 7 8 10 11 11 11 10 8 8
2 1 3 3 3 3 5 7 4 4 6 5 4 4 4 3 3 2 3 4 5 6 6 6 5 5 5 5 6 6 8 8 7 8 10 11 12 11 9 7 7 9 10 9 8 7 6 5 5
1 2 4 3 4 3 4 6 4 3 6 6 4 4 4 2 1 0 1 3 5 5 6 6 5 5 5 5 5 6 7 7 7 8 8 9 11 11 10 8 8 11 9 7 7 5 5 6 5
4 4 4 5 3 3 4 6 4 2 5 5 4 3 4 3 3 2 2 2 3 4 5 5 5 5 4 4 4 4 4 5 6 7 8 9 9 10 9 8 8 10 7 6 6 6 5 5 6
3 4 5 5 2 2 6 7 6 4 4 4 4 3 3 4 2 1 2 3 3 3 4 4 5 5 5 4 3 4 5 4 4 5 7 9 9 10 9 8 8 7 6 7 8 7 7 5 5
3 3 4 3 2 2 4 6 4 3 4 5 6 4 3 1 1 1 2 2 3 4 3 4 5 5 5 4 3 2 4 3 4 4 6 8 9 9 8 8 7 7 6 7 7 8 5 4 4
4 6 5 4 3 1 1 4 4 3 3 3 3 3 2 2 2 1 1 2 2 3 4 4 4 5 4 4 3 2 2 2 2 3 4 6 9 9 9 9 8 7 7 7 8 8 7 6 3
5 4 4 3 1 3 2 4 5 4 3 3 3 2 2 2 2 2 2 1 3 3 3 3 4 5 5 5 5 5 4 4 4 4 4 5 8 9 9 9 9 8 7 7 8 7 5 7 6
4 2 2 2 3 2 2 4 6 3 4 4 4 3 2 2 2 2 2 2 1 2 2 2 3 4 4 5 6 6 5 3 2 3 4 4 4 6 8 9 8 8 7 7 7 6 6 6 6
1 3 3 3 2 4 6 6 6 5 6 4 3 2 2 1 1 0 0 0 0 0 1 1 2 3 4 5 5 5 6 4 4 5 5 5 3 4 6 7 8 7 7 7 8 7 7 6 6
3 4 2 2 1 6 3 4 6 4 3 4 3 3 2 1 1 1 0 0 1 0 1 2 2 3 3 4 5 5 6 6 6 6 6 5 4 4 5 6 6 6 6 7 7 7 7 7 7
3 6 5 5 5 4 1 5 5 2 1 1 1 1 0 0 0 1 1 1 1 1 1 2 3 3 3 4 4 4 5 5 4 5 6 6 5 5 6 6 6 6 7 7 6 5 6 6 6
4 4 4 3 1 2 5 4 5 1 0 0 1 1 1 1 1 1 1 0 1 1 2 2 2 2 3 3 3 4 4 4 5 4 5 5 5 5 6 7 7 6 7 7 6 5 6 6 6
2 5 4 3 3 4 5 5 5 5 4 2 2 2 3 2 2 2 1 1 1 1 1 1 2 3 3 2 3 3 4 4 4 4 6 6 5 6 6 6 7 6 6 6 6 5 6 6 5
3 3 3 3 3 4 4 6 4 6 4 3 3 2 2 2 2 2 2 2 1 2 1 1 1 1 1 2 2 2 3 3 4 4 5 5 5 6 7 7 6 7 7 7 6 6 6 7 6
5 5 6 5 5 4 4 7 2 2 1 1 2 3 3 3 2 2 2 2 1 1 1 1 2 2 2 2 2 2 2 3 4 4 4 4 5 6 6 6 6 6 6 7 7 7 7 7 7
Wind_Direction
312 3 69 61 63 63 232 238 221 229 206 226 136 112 120 120 144 159 132 138 136 146 152 147 144 140 135 129 125 122 117 114 111 107 105 103 100 100 98 95 92 89 87 85 84 83 83 83 81
336 50 62 70 117 197 248 234 219 230 196 155 73 93 89 88 90 117 130 144 139 142 145 144 142 140 136 131 127 124 120 116 113 109 106 104 102 100 99 96 93 91 89 87 85 85 84 83 82
315 98 97 102 162 199 222 218 211 230 221 160 91 62 98 125 135 147 157 143 133 135 141 143 142 140 136 132 129 126 121 118 114 110 107 105 103 101 99 97 95 93 91 90 88 86 85 83 83
89 68 72 133 216 219 214 211 198 207 330 104 125 86 68 26 154 141 139 135 131 134 138 143 142 140 137 133 131 128 124 121 117 114 111 109 106 105 102 100 99 97 94 93 91 87 86 85 86
78 102 138 225 236 236 229 219 200 191 191 145 123 118 74 347 81 114 128 133 136 138 140 144 141 139 137 135 134 130 128 125 121 118 115 113 110 108 106 104 101 99 96 94 92 88 88 87 87
96 105 165 221 236 239 240 221 193 184 182 110 113 119 142 1 98 119 123 127 135 137 135 140 143 140 136 135 134 133 131 128 126 123 119 116 114 112 110 108 104 101 99 96 92 91 90 87 86
142 152 196 213 226 235 239 209 179 182 180 191 138 121 148 281 115 119 116 119 120 127 127 129 135 136 136 134 133 133 131 130 128 125 121 118 116 115 112 110 108 104 102 98 95 94 92 88 87
145 141 206 216 211 226 228 181 187 177 199 136 110 136 177 212 143 116 110 108 111 119 124 127 128 129 130 133 134 132 131 130 128 125 120 118 116 115 114 111 109 107 103 98 96 95 93 89 87
126 148 213 212 205 219 203 174 269 190 115 69 59 152 171 143 126 119 118 114 117 119 125 127 127 128 128 130 134 131 129 129 127 124 120 116 111 109 110 111 110 108 105 101 97 95 92 88 84
141 198 220 213 201 198 198 194 199 129 109 95 38 31 115 131 135 140 147 149 147 145 139 136 132 131 128 128 127 124 125 124 122 124 122 118 115 113 113 111 111 108 104 102 99 95 88 84 80
174 206 217 227 226 206 194 211 192 155 202 200 183 167 145 143 149 155 159 159 158 153 145 140 140 134 131 127 125 118 119 119 121 123 124 121 115 113 111 108 105 101 98 95 93 86 83 83 80
191 233 214 223 261 220 209 198 212 195 213 186 167 158 156 159 168 171 169 162 152 147 147 141 135 139 137 134 132 129 125 125 126 129 130 127 119 115 115 110 108 104 102 98 93 90 88 83 82
221 248 256 248 253 244 210 228 228 238 219 119 128 139 160 169 176 175 162 154 151 150 150 150 139 142 144 139 139 137 135 135 136 136 137 136 131 129 123 117 113 111 110 107 101 97 93 87 82
202 216 262 251 247 244 202 253 222 248 112 104 125 152 176 182 179 165 161 163 161 160 159 155 150 143 147 148 147 146 143 140 140 141 144 142 140 139 133 127 121 120 120 115 111 108 100 92 88
126 322 303 247 217 219 142 278 236 222 132 124 144 157 165 177 171 175 179 176 172 168 164 162 159 147 146 150 151 149 148 145 146 148 147 145 144 144 141 135 131 132 129 120 112 105 101 96 90
76 105 255 251 195 192 153 243 243 188 153 159 162 157 155 165 175 182 173 167 164 160 163 163 157 153 151 154 152 152 151 146 147 150 150 148 148 147 141 139 139 138 131 123 117 112 108 99 95
84 223 235 253 198 173 176 236 245 181 160 164 166 160 156 157 153 230 194 165 158 159 162 161 153 157 159 152 154 151 150 147 148 148 147 152 154 151 144 143 146 143 134 127 128 118 119 115 103
207 215 232 236 216 188 210 236 248 184 168 174 173 170 165 171 199 191 166 144 141 145 149 156 159 158 154 147 148 144 140 148 151 154 154 154 157 155 147 142 145 147 141 138 135 130 119 122 119
194 205 236 250 241 212 225 245 250 181 167 180 187 188 193 203 202 147 138 131 127 133 143 150 160 163 153 157 171 172 175 176 168 160 160 160 160 157 152 149 148 152 155 155 148 138 130 128 127
216 236 253 281 330 249 251 264 257 198 187 190 191 191 194 182 59 120 118 132 147 163 171 169 168 171 169 174 180 184 173 181 178 164 166 166 164 164 159 155 160 161 154 152 154 148 145 156 156
234 216 233 255 332 331 320 285 242 222 178 170 169 179 192 186 196 192 161 165 173 184 190 191 187 175 172 167 148 130 133 137 164 181 183 177 175 171 167 166 166 168 167 170 170 169 160 167 186
243 225 220 228 189 262 189 255 252 209 207 201 211 202 209 220 185 183 192 200 202 211 203 191 187 175 171 164 164 163 178 186 199 192 189 183 182 179 174 172 171 174 175 177 181 177 172 166 172
223 244 219 209 182 252 222 215 268 191 216 226 225 228 228 212 172 180 196 213 217 200 189 186 188 182 176 174 180 179 189 200 182 170 172 180 184 186 180 177 177 178 179 181 182 182 180 178 177
169 42 50 52 97 248 216 199 254 214 208 206 225 231 223 202 155 165 265 246 344 124 178 177 179 194 187 183 186 192 191 186 177 181 185 187 190 187 185 181 184 185 183 186 188 187 188 190 183
86 88 40 337 269 246 211 206 243 229 196 187 211 228 228 224 183 174 16 320 294 275 210 212 199 209 200 188 195 202 200 193 192 195 192 188 192 199 192 184 183 187 191 190 188 189 191 191 185
188 153 170 207 227 272 279 230 250 245 121 115 169 204 287 289 201 213 239 234 279 251 231 217 211 217 213 202 203 208 206 202 203 202 196 194 199 201 189 184 187 191 189 187 185 191 196 191 191
154 190 175 147 218 267 261 273 292 223 246 41 3 10 323 333 343 316 326 330 306 280 242 218 211 219 221 219 210 209 209 211 210 210 200 199 197 195 186 186 189 192 192 188 184 196 202 195 198
153 146 110 148 193 248 269 254 238 222 241 265 283 289 304 328 324 323 319 319 316 311 286 255 217 213 221 221 213 220 218 215 210 213 211 200 198 187 187 190 190 192 193 190 188 196 202 197 202
151 162 161 174 194 196 248 261 233 204 204 228 253 278 278 283 295 304 309 312 316 333 319 275 272 261 236 224 226 226 222 213 207 213 214 203 199 192 192 193 196 196 195 191 193 202 200 201 205
182 186 165 182 228 211 224 264 283 179 184 204 270 300 306 302 310 313 313 320 328 321 314 276 271 261 258 248 230 234 233 209 210 221 220 203 201 197 193 195 199 202 200 196 199 204 205 202 205
Height
1510 1511 1512 1514 1518 1527 1525 1516 1510 1507 1507 1506 1505 1505 1506 1510 1514 1520 1517 1517 1520 1522 1525 1527 1529 1531 1533 1535 1536 1538 1539 1540 1540 1541 1542 1542 1543 1543 1544 1545 1545 1545 1546 1546 1546 1546 1547 1547 1547
1509 1510 1513 1514 1522 1530 1523 1512 1508 1504 1504 1505 1505 1506 1506 1509 1511 1513 1514 1517 1520 1522 1525 1527 1529 1531 1533 1535 1536 1538 1539 1540 1541 1542 1542 1543 1544 1544 1545 1545 1546 1546 1547 1547 1547 1548 1548 1548 1548
1508 1509 1512 1514 1521 1522 1513 1506 1504 1502 1503 1504 1505 1506 1508 1510 1511 1512 1514 1517 1520 1522 1525 1527 1529 1531 1533 1535 1536 1538 1539 1540 1541 1542 1543 1544 1544 1545 1546 1546 1547 1547 1548 1548 1548 1549 1549 1550 1550
1507 1510 1511 1516 1514 1509 1504 1501 1501 1502 1502 1503 1504 1507 1508 1511 1511 1512 1514 1516 1519 1522 1524 1527 1529 1531 1533 1535 1536 1538 1539 1540 1542 1542 1543 1544 1545 1546 1546 1547 1547 1548 1548 1549 1549 1550 1550 1551 1551
1505 1506 1512 1515 1509 1503 1500 1499 1500 1501 1502 1502 1503 1506 1508 1510 1511 1512 1514 1517 1519 1521 1524 1526 1529 1531 1533 1534 1536 1538 1539 1541 1542 1543 1544 1544 1545 1546 1547 1547 1548 1549 1549 1550 1550 1551 1551 1552 1552
1503 1504 1513 1513 1506 1500 1499 1499 1499 1500 1501 1502 1503 1505 1508 1510 1511 1512 1514 1517 1519 1521 1524 1526 1528 1530 1532 1534 1536 1538 1539 1540 1541 1543 1544 1545 1546 1546 1547 1548 1549 1549 1550 1550 1551 1552 1552 1553 1553
1501 1504 1507 1505 1503 1501 1498 1498 1499 1499 1500 1501 1502 1505 1507 1509 1511 1512 1514 1516 1519 1521 1523 1525 1528 1530 1532 1533 1535 1537 1539 1540 1541 1543 1544 1545 1546 1547 1548 1548 1549 1550 1550 1551 1551 1552 1553 1553 1554
1498 1502 1502 1502 1501 1498 1497 1497 1498 1499 1499 1501 1502 1503 1505 1508 1510 1512 1514 1516 1518 1521 1523 1525 1527 1529 1531 1533 1535 1537 1538 1540 1541 1542 1543 1545 1546 1547 1548 1548 1549 1550 1551 1551 1552 1552 1553 1554 1554
1497 1503 1502 1498 1497 1495 1495 1496 1497 1498 1499 1500 1501 1502 1503 1506 1508 1511 1513 1515 1517 1520 1522 1524 1526 1528 1530 1532 1534 1536 1537 1539 1540 1542 1543 1544 1545 1546 1547 1548 1549 1550 1551 1551 1552 1553 1553 1554 1555
1495 1500 1496 1493 1492 1493 1494 1494 1495 1497 1497 1499 1500 1501 1502 1504 1506 1508 1510 1513 1515 1517 1520 1523 1524 1526 1529 1531 1533 1535 1536 1538 1539 1541 1542 1543 1545 1546 1547 1548 1549 1550 1551 1551 1552 1553 1554 1554 1555
1491 1493 1491 1490 1490 1491 1492 1493 1494 1495 1497 1497 1497 1499 1500 1503 1505 1507 1509 1511 1513 1516 1518 1521 1523 1525 1527 1529 1531 1533 1535 1536 1538 1540 1541 1542 1544 1545 1546 1547 1548 1549 1550 1551 1552 1553 1554 1555 1555
1490 1489 1489 1489 1489 1490 1491 1492 1493 1493 1494 1495 1497 1497 1499 1500 1503 1505 1507 1509 1512 1514 1517 1519 1521 1523 1525 1527 1529 1531 1533 1535 1536 1538 1540 1541 1542 1544 1545 1546 1548 1549 1550 1551 1552 1553 1554 1555 1555
1488 1488 1488 1489 1489 1490 1490 1491 1492 1492 1493 1494 1495 1496 1497 1498 1501 1504 1506 1508 1510 1511 1514 1517 1519 1521 1523 1525 1527 1529 1531 1532 1534 1536 1538 1539 1541 1542 1544 1545 1546 1548 1549 1550 1551 1552 1553 1554 1555
1487 1488 1488 1488 1488 1489 1490 1491 1492 1491 1492 1492 1493 1494 1496 1497 1499 1501 1503 1505 1507 1509 1512 1514 1516 1518 1521 1523 1525 1526 1528 1530 1532 1534 1536 1537 1539 1540 1542 1543 1545 1546 1548 1549 1550 1551 1552 1553 1554
1486 1488 1488 1487 1487 1488 1490 1492 1490 1490 1491 1492 1493 1494 1495 1496 1498 1499 1500 1502 1504 1507 1509 1512 1514 1516 1518 1520 1522 1524 1526 1527 1529 1531 1533 1535 1537 1538 1540 1541 1543 1545 1546 1548 1549 1550 1551 1553 1554
1487 1490 1491 1487 1487 1487 1492 1492 1488 1489 1490 1491 1492 1493 1493 1495 1496 1497 1499 1500 1502 1504 1507 1509 1511 1513 1515 1517 1519 1521 1523 1525 1527 1528 1530 1532 1534 1536 1537 1539 1541 1543 1544 1546 1547 1548 1550 1551 1552
1490 1494 1491 1488 1486 1487 1489 1490 1487 1487 1488 1489 1490 1491 1491 1493 1494 1495 1497 1498 1499 1501 1503 1506 1508 1510 1512 1514 1517 1518 1520 1522 1524 1526 1527 1529 1531 1533 1535 1536 1538 1540 1542 1544 1545 1547 1548 1549 1551
1493 1493 1490 1488 1485 1486 1488 1487 1485 1486 1486 1487 1488 1489 1490 1490 1492 1493 1494 1496 1496 1498 1500 1502 1505 1507 1509 1510 1513 1515 1517 1519 1521 1522 1524 1526 1528 1530 1531 1533 1535 1537 1539 1540 1542 1544 1546 1547 1549
1487 1489 1490 1487 1484 1486 1486 1485 1484 1485 1486 1486 1487 1488 1488 1488 1490 1491 1492 1493 1494 1495 1497 1498 1501 1503 1505 1506 1508 1510 1512 1515 1517 1519 1521 1523 1525 1527 1528 1530 1532 1534 1536 1537 1539 1541 1543 1544 1546
1486 1489 1489 1486 1484 1486 1486 1486 1484 1483 1484 1484 1484 1485 1485 1486 1487 1488 1489 1490 1490 1491 1493 1494 1497 1499 1501 1504 1505 1508 1510 1512 1514 1516 1518 1519 1521 1523 1525 1526 1528 1530 1532 1534 1536 1537 1539 1541 1543
1486 1488 1488 1488 1486 1486 1487 1486 1483 1482 1482 1482 1482 1482 1483 1483 1484 1485 1486 1486 1487 1488 1489 1491 1493 1495 1497 1500 1502 1504 1506 1508 1510 1511 1513 1515 1517 1519 1521 1523 1525 1527 1528 1530 1532 1534 1535 1537 1539
1486 1483 1485 1486 1490 1493 1490 1493 1482 1480 1481 1480 1480 1480 1480 1481 1481 1482 1483 1483 1483 1485 1487 1488 1490 1492 1494 1496 1497 1499 1500 1502 1504 1506 1509 1511 1514 1515 1517 1519 1520 1522 1524 1526 1528 1530 1532 1534 1535
1483 1482 1484 1486 1490 1494 1492 1495 1484 1480 1480 1479 1478 1477 1478 1478 1479 1479 1479 1480 1481 1482 1483 1485 1486 1488 1490 1491 1494 1495 1497 1499 1501 1502 1505 1507 1509 1511 1513 1514 1516 1518 1520 1522 1524 1526 1528 1530 1531
1482 1484 1487 1491 1493 1494 1488 1491 1483 1480 1475 1475 1476 1476 1476 1476 1476 1476 1477 1478 1478 1479 1480 1481 1483 1484 1486 1488 1490 1491 1493 1495 1497 1498 1500 1502 1504 1506 1508 1510 1512 1514 1516 1518 1520 1522 1524 1526 1528
1484 1490 1495 1496 1498 1490 1484 1486 1480 1474 1472 1473 1473 1473 1473 1474 1474 1474 1474 1474 1475 1475 1476 1477 1478 1480 1481 1484 1485 1487 1489 1490 1492 1494 1495 1497 1499 1501 1503 1505 1507 1510 1511 1513 1516 1518 1519 1521 1523
1485 1488 1495 1497 1495 1490 1487 1487 1478 1473 1472 1472 1472 1472 1471 1472 1471 1471 1472 1472 1471 1472 1473 1474 1475 1476 1477 1479 1481 1483 1485 1486 1488 1490 1491 1492 1494 1496 1498 1500 1503 1505 1507 1509 1511 1513 1515 1517 1519
1485 1488 1488 1496 1497 1498 1491 1485 1478 1472 1472 1472 1471 1471 1470 1469 1469 1469 1469 1469 1469 1469 1469 1470 1471 1472 1474 1475 1477 1479 1480 1482 1484 1485 1487 1488 1490 1492 1494 1496 1498 1501 1503 1505 1507 1508 1510 1512 1514
1483 1486 1493 1495 1496 1494 1489 1485 1477 1472 1471 1471 1470 1469 1468 1468 1467 1467 1467 1467 1467 1467 1466 1467 1468 1469 1470 1471 1473 1475 1476 1478 1479 1480 1482 1484 1486 1488 1489 1491 1494 1496 1498 1500 1502 1503 1505 1507 1509
1485 1487 1488 1492 1492 1492 1491 1480 1469 1467 1467 1469 1468 1468 1467 1466 1465 1465 1465 1465 1465 1464 1464 1464 1464 1465 1466 1467 1469 1470 1472 1473 1475 1476 1477 1479 1481 1483 1484 1486 1489 1490 1492 1494 1496 1498 1500 1502 1504
1482 1483 1487 1490 1489 1490 1487 1478 1466 1466 1466 1467 1467 1466 1465 1465 1464 1463 1463 1462 1462 1461 1461 1461 1461 1461 1462 1464 1465 1466 1467 1468 1470 1471 1472 1474 1476 1478 1480 1482 1484 1485 1487 1489 1490 1492 1494 1496 1498